| time (UTC) | temp F | wind direction | speed MPH | gust MPH | rain 1hr in | rain 24hr in | rain mn in | humidity % | barometer mb |
| 20260506002820 | 60 | 99 | 0.0 | 1.0 | 0.00 | 0.01 | 0.01 | 96 | 1001.4 |
| 20260506002317 | 60 | 80 | 0.0 | 0.0 | 0.00 | 0.01 | 0.01 | 95 | 1001.4 |
| 20260506001812 | 61 | 80 | 0.0 | 0.0 | 0.00 | 0.01 | 0.01 | 95 | 1001.5 |
| 20260506001310 | 61 | 81 | 1.0 | 1.0 | 0.05 | 0.01 | 0.01 | 94 | 1001.3 |
| 20260506000806 | 61 | 51 | 0.0 | 0.0 | 0.05 | 0.01 | 0.01 | 93 | 1001.3 |
| 20260506000304 | 62 | 64 | 0.0 | 0.0 | 0.05 | 0.01 | 0.01 | 92 | 1000.8 |
| 20260505235801 | 62 | 104 | 0.0 | 0.0 | 0.00 | 0.00 | 0.00 | 90 | 1001.3 |
| 20260505235259 | 62 | 74 | 0.0 | 0.0 | 0.00 | 0.00 | 0.00 | 87 | 1001.3 |
| 20260505234755 | 62 | 92 | 1.0 | 1.0 | 0.00 | 0.00 | 0.00 | 85 | 1001.3 |
| 20260505234253 | 61 | 68 | 1.0 | 1.0 | 0.00 | 0.00 | 0.00 | 87 | 1001.7 |
| 20260505233749 | 61 | 67 | 1.0 | 1.0 | 0.00 | 0.00 | 0.00 | 88 | 1001.5 |
| 20260505233247 | 62 | 76 | 0.0 | 0.0 | 0.00 | 0.00 | 0.00 | 87 | 1001.6 |
| 20260505232744 | 62 | 111 | 2.0 | 2.0 | 0.00 | 0.00 | 0.00 | 87 | 1001.5 |
| 20260505232242 | 62 | 81 | 1.0 | 1.0 | 0.00 | 0.00 | 0.00 | 86 | 1001.8 |
| 20260505231738 | 62 | 33 | 0.0 | 1.0 | 0.00 | 0.00 | 0.00 | 85 | 1002.0 |
| 20260505231237 | 63 | 43 | 0.0 | 1.0 | 0.00 | 0.00 | 0.00 | 80 | 1001.8 |
| 20260505230735 | 65 | 36 | 1.0 | 1.0 | 0.00 | 0.00 | 0.00 | 76 | 1001.5 |
| 20260505230231 | 66 | 282 | 3.0 | 3.0 | 0.00 | 0.00 | 0.00 | 70 | 1001.7 |
| 20260505225728 | 67 | 295 | 6.0 | 8.0 | 0.00 | 0.00 | 0.00 | 63 | 1002.0 |
| 20260505225225 | 66 | 267 | 3.0 | 3.0 | 0.00 | 0.00 | 0.00 | 62 | 999.5 |
| 20260505224720 | 67 | 268 | 4.0 | 4.0 | 0.00 | 0.00 | 0.00 | 62 | 999.2 |
| 20260505224218 | 67 | 250 | 3.0 | 3.0 | 0.00 | 0.00 | 0.00 | 62 | 998.9 |
| 20260505223716 | 67 | 331 | 4.0 | 4.0 | 0.00 | 0.00 | 0.00 | 61 | 999.0 |
| 20260505223212 | 67 | 182 | 3.0 | 4.0 | 0.00 | 0.00 | 0.00 | 61 | 998.7 |
| 20260505222708 | 67 | 258 | 3.0 | 3.0 | 0.00 | 0.00 | 0.00 | 61 | 998.6 |
| 20260505222203 | 67 | 193 | 4.0 | 6.0 | 0.00 | 0.00 | 0.00 | 61 | 998.7 |
| 20260505221701 | 67 | 218 | 4.0 | 8.0 | 0.00 | 0.00 | 0.00 | 60 | 998.7 |
| 20260505221158 | 68 | 259 | 7.0 | 9.0 | 0.00 | 0.00 | 0.00 | 60 | 998.4 |
| 20260505220655 | 68 | 290 | 6.0 | 8.0 | 0.00 | 0.00 | 0.00 | 59 | 998.7 |
| 20260505220153 | 68 | 241 | 9.0 | 13.0 | 0.00 | 0.00 | 0.00 | 59 | 998.8 |
| 20260505215650 | 68 | 249 | 11.0 | 14.0 | 0.00 | 0.00 | 0.00 | 59 | 998.4 |
| 20260505215148 | 69 | 226 | 5.0 | 7.0 | 0.00 | 0.00 | 0.00 | 59 | 998.4 |
| 20260505214646 | 69 | 292 | 2.0 | 3.0 | 0.00 | 0.00 | 0.00 | 59 | 998.3 |
| 20260505214143 | 69 | 249 | 5.0 | 7.0 | 0.00 | 0.00 | 0.00 | 58 | 998.0 |
| 20260505213640 | 69 | 291 | 6.0 | 8.0 | 0.00 | 0.00 | 0.00 | 58 | 998.3 |
| 20260505213137 | 69 | 172 | 3.0 | 3.0 | 0.00 | 0.00 | 0.00 | 59 | 998.3 |
| 20260505212632 | 69 | 283 | 3.0 | 3.0 | 0.00 | 0.00 | 0.00 | 58 | 998.4 |
| 20260505212130 | 70 | 283 | 12.0 | 16.0 | 0.00 | 0.00 | 0.00 | 58 | 998.2 |
| 20260505211627 | 71 | 149 | 6.0 | 8.0 | 0.00 | 0.00 | 0.00 | 57 | 998.3 |
| 20260505211125 | 70 | 210 | 3.0 | 4.0 | 0.00 | 0.00 | 0.00 | 57 | 998.2 |
| 20260505210621 | 71 | 205 | 7.0 | 11.0 | 0.00 | 0.00 | 0.00 | 56 | 998.0 |
| 20260505210118 | 71 | 95 | 2.0 | 4.0 | 0.00 | 0.00 | 0.00 | 57 | 998.2 |
| 20260505205615 | 71 | 206 | 3.0 | 4.0 | 0.00 | 0.00 | 0.00 | 57 | 998.0 |
| 20260505205113 | 70 | 268 | 3.0 | 3.0 | 0.00 | 0.00 | 0.00 | 58 | 998.3 |
| 20260505204610 | 71 | 306 | 7.0 | 9.0 | 0.00 | 0.00 | 0.00 | 57 | 998.1 |
| 20260505204108 | 71 | 252 | 2.0 | 3.0 | 0.00 | 0.00 | 0.00 | 58 | 998.0 |
| 20260505203604 | 71 | 212 | 2.0 | 3.0 | 0.00 | 0.00 | 0.00 | 57 | 998.2 |
| 20260505203101 | 71 | 209 | 4.0 | 4.0 | 0.00 | 0.00 | 0.00 | 57 | 998.3 |
| 20260505202557 | 71 | 254 | 6.0 | 8.0 | 0.00 | 0.00 | 0.00 | 56 | 998.1 |
| 20260505202053 | 71 | 285 | 6.0 | 8.0 | 0.00 | 0.00 | 0.00 | 56 | 997.9 |
| 20260505201550 | 72 | 125 | 1.0 | 1.0 | 0.00 | 0.00 | 0.00 | 58 | 998.3 |
| 20260505201048 | 73 | 264 | 2.0 | 3.0 | 0.00 | 0.00 | 0.00 | 55 | 998.3 |
| 20260505200545 | 73 | 236 | 2.0 | 2.0 | 0.00 | 0.00 | 0.00 | 55 | 998.5 |
| 20260505200042 | 73 | 330 | 3.0 | 3.0 | 0.00 | 0.00 | 0.00 | 55 | 998.4 |
| 20260505195538 | 74 | 299 | 3.0 | 3.0 | 0.00 | 0.00 | 0.00 | 54 | 998.6 |
| 20260505195036 | 73 | 86 | 2.0 | 3.0 | 0.00 | 0.00 | 0.00 | 53 | 998.5 |
| 20260505194533 | 74 | 273 | 4.0 | 6.0 | 0.00 | 0.00 | 0.00 | 52 | 998.6 |
| 20260505194028 | 74 | 268 | 6.0 | 11.0 | 0.00 | 0.00 | 0.00 | 53 | 998.4 |
| 20260505193526 | 74 | 284 | 6.0 | 7.0 | 0.00 | 0.00 | 0.00 | 53 | 998.5 |
| 20260505193023 | 74 | 231 | 4.0 | 7.0 | 0.00 | 0.00 | 0.00 | 53 | 998.8 |
| 20260505192521 | 73 | 274 | 4.0 | 6.0 | 0.00 | 0.00 | 0.00 | 54 | 998.8 |
| 20260505192019 | 73 | 283 | 2.0 | 3.0 | 0.00 | 0.00 | 0.00 | 55 | 998.8 |
| 20260505191517 | 73 | 280 | 8.0 | 14.0 | 0.00 | 0.00 | 0.00 | 54 | 999.2 |
| 20260505191014 | 73 | 326 | 2.0 | 3.0 | 0.00 | 0.00 | 0.00 | 54 | 999.0 |
| 20260505190509 | 74 | 276 | 5.0 | 6.0 | 0.00 | 0.00 | 0.00 | 54 | 999.2 |
| 20260505190005 | 73 | 245 | 4.0 | 6.0 | 0.00 | 0.00 | 0.00 | 54 | 999.3 |
| 20260505185502 | 73 | 318 | 2.0 | 3.0 | 0.00 | 0.00 | 0.00 | 54 | 999.1 |
| 20260505184958 | 73 | 293 | 5.0 | 6.0 | 0.00 | 0.00 | 0.00 | 54 | 999.4 |
| 20260505184455 | 73 | 278 | 3.0 | 4.0 | 0.00 | 0.00 | 0.00 | 54 | 999.5 |
| 20260505183951 | 74 | 358 | 3.0 | 4.0 | 0.00 | 0.00 | 0.00 | 55 | 999.6 |
| 20260505183449 | 73 | 147 | 3.0 | 4.0 | 0.00 | 0.00 | 0.00 | 54 | 999.5 |
| 20260505182945 | 74 | 282 | 3.0 | 4.0 | 0.00 | 0.00 | 0.00 | 54 | 999.7 |
| 20260505182442 | 73 | 224 | 1.0 | 1.0 | 0.00 | 0.00 | 0.00 | 54 | 999.5 |
| 20260505181938 | 73 | 230 | 4.0 | 4.0 | 0.00 | 0.00 | 0.00 | 57 | 999.6 |
| 20260505181436 | 73 | 103 | 2.0 | 3.0 | 0.00 | 0.00 | 0.00 | 54 | 999.7 |
| 20260505180933 | 74 | 245 | 3.0 | 3.0 | 0.00 | 0.00 | 0.00 | 54 | 999.7 |
| 20260505180429 | 73 | 351 | 1.0 | 2.0 | 0.00 | 0.00 | 0.00 | 55 | 999.8 |
| 20260505175925 | 74 | 249 | 4.0 | 6.0 | 0.00 | 0.00 | 0.00 | 54 | 999.7 |
| 20260505175422 | 74 | 185 | 1.0 | 1.0 | 0.00 | 0.00 | 0.00 | 54 | 999.8 |
| 20260505174918 | 75 | 74 | 4.0 | 4.0 | 0.00 | 0.00 | 0.00 | 51 | 999.7 |
| 20260505174416 | 74 | 129 | 2.0 | 2.0 | 0.00 | 0.00 | 0.00 | 55 | 999.7 |
| 20260505173912 | 73 | 300 | 2.0 | 6.0 | 0.00 | 0.00 | 0.00 | 54 | 1000.0 |
| 20260505173408 | 73 | 238 | 6.0 | 8.0 | 0.00 | 0.00 | 0.00 | 54 | 999.9 |
| 20260505172905 | 74 | 134 | 3.0 | 7.0 | 0.00 | 0.00 | 0.00 | 56 | 999.8 |
| 20260505172403 | 74 | 13 | 4.0 | 6.0 | 0.00 | 0.00 | 0.00 | 52 | 999.9 |
| 20260505171903 | 75 | 85 | 2.0 | 3.0 | 0.00 | 0.00 | 0.00 | 53 | 1000.2 |
| 20260505171400 | 75 | 65 | 2.0 | 2.0 | 0.00 | 0.00 | 0.00 | 53 | 1000.3 |
| 20260505170856 | 74 | 251 | 3.0 | 4.0 | 0.00 | 0.00 | 0.00 | 52 | 1000.2 |
| 20260505170354 | 74 | 266 | 4.0 | 4.0 | 0.00 | 0.00 | 0.00 | 53 | 1000.3 |
| 20260505165848 | 74 | 232 | 5.0 | 7.0 | 0.00 | 0.00 | 0.00 | 54 | 1000.7 |
| 20260505165344 | 73 | 346 | 1.0 | 2.0 | 0.00 | 0.00 | 0.00 | 56 | 1000.5 |
| 20260505164840 | 72 | 283 | 1.0 | 2.0 | 0.00 | 0.00 | 0.00 | 57 | 1000.7 |
| 20260505164337 | 72 | 161 | 4.0 | 6.0 | 0.00 | 0.00 | 0.00 | 56 | 1000.9 |
| 20260505163836 | 72 | 221 | 5.0 | 10.0 | 0.00 | 0.00 | 0.00 | 56 | 1001.1 |
| 20260505163334 | 71 | 287 | 5.0 | 7.0 | 0.00 | 0.00 | 0.00 | 57 | 1001.1 |
| 20260505162832 | 71 | 203 | 4.0 | 6.0 | 0.00 | 0.00 | 0.00 | 58 | 1001.3 |
| 20260505162328 | 71 | 297 | 2.0 | 3.0 | 0.00 | 0.00 | 0.00 | 56 | 1001.3 |
| 20260505161825 | 69 | 145 | 2.0 | 3.0 | 0.00 | 0.00 | 0.00 | 58 | 1001.2 |
| 20260505161322 | 69 | 124 | 3.0 | 3.0 | 0.00 | 0.00 | 0.00 | 58 | 1001.4 |
| 20260505160819 | 69 | 52 | 1.0 | 1.0 | 0.00 | 0.00 | 0.00 | 60 | 1001.5 |
| 20260505160318 | 69 | 111 | 1.0 | 2.0 | 0.00 | 0.00 | 0.00 | 62 | 1001.6 |
| 20260505153256 | 66 | 214 | 4.0 | 4.0 | 0.00 | 0.00 | 0.00 | 64 | 1002.1 |
| 20260505152753 | 65 | 127 | 2.0 | 2.0 | 0.00 | 0.00 | 0.00 | 65 | 1002.2 |
| 20260505152249 | 67 | 260 | 5.0 | 6.0 | 0.00 | 0.00 | 0.00 | 62 | 1002.2 |
| 20260505151744 | 66 | 239 | 2.0 | 3.0 | 0.00 | 0.00 | 0.00 | 64 | 1002.4 |
| 20260505151242 | 65 | 137 | 2.0 | 2.0 | 0.00 | 0.00 | 0.00 | 65 | 1002.3 |
| 20260505150738 | 64 | 267 | 3.0 | 3.0 | 0.00 | 0.00 | 0.00 | 64 | 1002.3 |
| 20260505150236 | 64 | 214 | 2.0 | 3.0 | 0.00 | 0.00 | 0.00 | 64 | 1002.3 |
| 20260505140200 | 66 | 270 | 3.0 | 4.0 | 0.00 | 0.00 | 0.00 | 59 | 1001.9 |
| 20260505130124 | 61 | 293 | 4.0 | 4.0 | 0.00 | 0.00 | 0.00 | 66 | 1002.4 |
| 20260505124613 | 60 | 111 | 1.0 | 2.0 | 0.00 | 0.00 | 0.00 | 69 | 1002.3 |
| 20260505124109 | 59 | 161 | 1.0 | 2.0 | 0.00 | 0.00 | 0.00 | 70 | 1002.2 |
| 20260505123606 | 59 | 132 | 1.0 | 1.0 | 0.00 | 0.00 | 0.00 | 71 | 1002.4 |
| 20260505123103 | 58 | 241 | 2.0 | 3.0 | 0.00 | 0.00 | 0.00 | 72 | 1002.4 |
| 20260505122559 | 57 | 266 | 2.0 | 3.0 | 0.00 | 0.00 | 0.00 | 73 | 1002.6 |
| 20260505122056 | 57 | 260 | 2.0 | 3.0 | 0.00 | 0.00 | 0.00 | 75 | 1002.5 |
| 20260505121553 | 56 | 212 | 2.0 | 3.0 | 0.00 | 0.00 | 0.00 | 74 | 1002.7 |
| 20260505121050 | 56 | 227 | 3.0 | 3.0 | 0.00 | 0.00 | 0.00 | 77 | 1002.5 |
| 20260505120546 | 55 | 225 | 2.0 | 2.0 | 0.00 | 0.00 | 0.00 | 76 | 1002.5 |
| 20260505120042 | 55 | 253 | 3.0 | 4.0 | 0.00 | 0.00 | 0.00 | 78 | 1002.5 |
| 20260505115536 | 54 | 198 | 2.0 | 3.0 | 0.00 | 0.00 | 0.00 | 77 | 1002.6 |
| 20260505115034 | 54 | 146 | 1.0 | 1.0 | 0.00 | 0.00 | 0.00 | 79 | 1002.6 |
| 20260505114531 | 53 | 136 | 1.0 | 2.0 | 0.00 | 0.00 | 0.00 | 79 | 1002.8 |
| 20260505114027 | 53 | 264 | 2.0 | 3.0 | 0.00 | 0.00 | 0.00 | 80 | 1002.5 |
| 20260505113524 | 52 | 277 | 2.0 | 2.0 | 0.00 | 0.00 | 0.00 | 81 | 1002.7 |
| 20260505113020 | 51 | 124 | 1.0 | 1.0 | 0.00 | 0.00 | 0.00 | 82 | 1002.6 |
| 20260505112516 | 51 | 82 | 0.0 | 1.0 | 0.00 | 0.00 | 0.00 | 83 | 1002.5 |
| 20260505112014 | 51 | 355 | 1.0 | 2.0 | 0.00 | 0.00 | 0.00 | 83 | 1002.5 |
| 20260505111508 | 50 | 212 | 1.0 | 1.0 | 0.00 | 0.00 | 0.00 | 83 | 1002.6 |
| 20260505111005 | 50 | 241 | 2.0 | 2.0 | 0.00 | 0.00 | 0.00 | 83 | 1002.5 |
| 20260505110501 | 50 | 249 | 1.0 | 2.0 | 0.00 | 0.00 | 0.00 | 84 | 1003.0 |
| 20260505101932 | 48 | 12 | 1.0 | 1.0 | 0.00 | 0.00 | 0.00 | 87 | 1002.8 |
| 20260505101427 | 48 | 40 | 1.0 | 1.0 | 0.00 | 0.00 | 0.00 | 85 | 1002.8 |
| 20260505100923 | 47 | 219 | 1.0 | 2.0 | 0.00 | 0.00 | 0.00 | 88 | 1002.8 |
| 20260505100420 | 47 | 40 | 0.0 | 0.0 | 0.00 | 0.00 | 0.00 | 87 | 1002.7 |
| 20260505095915 | 48 | 15 | 1.0 | 1.0 | 0.00 | 0.00 | 0.00 | 85 | 1002.9 |
| 20260505095413 | 47 | 221 | 2.0 | 2.0 | 0.00 | 0.00 | 0.00 | 87 | 1002.6 |
| 20260505094909 | 47 | 26 | 0.0 | 1.0 | 0.00 | 0.00 | 0.00 | 88 | 1002.7 |
| 20260505094406 | 46 | 43 | 1.0 | 1.0 | 0.00 | 0.00 | 0.00 | 88 | 1002.5 |
| 20260505093901 | 47 | 229 | 1.0 | 2.0 | 0.00 | 0.00 | 0.00 | 87 | 1002.6 |
| 20260505093359 | 48 | 37 | 1.0 | 1.0 | 0.00 | 0.00 | 0.00 | 84 | 1002.6 |
| 20260505092856 | 48 | 9 | 1.0 | 1.0 | 0.00 | 0.00 | 0.00 | 85 | 1002.5 |
| 20260505092354 | 46 | 8 | 1.0 | 1.0 | 0.00 | 0.00 | 0.00 | 87 | 1002.7 |
| 20260505091851 | 47 | 25 | 1.0 | 1.0 | 0.00 | 0.00 | 0.00 | 86 | 1002.4 |
| 20260505091349 | 46 | 358 | 2.0 | 2.0 | 0.00 | 0.00 | 0.00 | 87 | 1002.6 |
| 20260505090847 | 46 | 23 | 0.0 | 1.0 | 0.00 | 0.00 | 0.00 | 88 | 1002.8 |
| 20260505090345 | 48 | 34 | 1.0 | 1.0 | 0.00 | 0.00 | 0.00 | 84 | 1002.7 |
| 20260505085841 | 50 | 22 | 1.0 | 2.0 | 0.00 | 0.00 | 0.00 | 80 | 1002.7 |
| 20260505085340 | 47 | 264 | 3.0 | 3.0 | 0.00 | 0.00 | 0.00 | 84 | 1002.7 |
| 20260505084837 | 47 | 88 | 0.0 | 1.0 | 0.00 | 0.00 | 0.00 | 85 | 1002.7 |
| 20260505084335 | 47 | 31 | 1.0 | 1.0 | 0.00 | 0.00 | 0.00 | 86 | 1002.6 |
| 20260505083832 | 47 | 311 | 1.0 | 2.0 | 0.00 | 0.00 | 0.00 | 85 | 1002.9 |
| 20260505083330 | 46 | 257 | 3.0 | 3.0 | 0.00 | 0.00 | 0.00 | 87 | 1002.8 |
| 20260505082826 | 46 | 256 | 3.0 | 3.0 | 0.00 | 0.00 | 0.00 | 88 | 1003.0 |
| 20260505082322 | 45 | 18 | 1.0 | 1.0 | 0.00 | 0.00 | 0.00 | 89 | 1002.9 |
| 20260505081819 | 45 | 40 | 1.0 | 1.0 | 0.00 | 0.00 | 0.00 | 89 | 1002.8 |
| 20260505081316 | 43 | 26 | 0.0 | 1.0 | 0.00 | 0.00 | 0.00 | 92 | 1003.0 |
| 20260505080813 | 44 | 350 | 2.0 | 2.0 | 0.00 | 0.00 | 0.00 | 90 | 1002.8 |
| 20260505080308 | 44 | 11 | 1.0 | 2.0 | 0.00 | 0.00 | 0.00 | 91 | 1002.8 |
| 20260505075804 | 45 | 135 | 1.0 | 1.0 | 0.00 | 0.00 | 0.00 | 88 | 1003.0 |
| 20260505075304 | 46 | 45 | 2.0 | 2.0 | 0.00 | 0.00 | 0.00 | 87 | 1002.8 |
| 20260505074758 | 45 | 16 | 1.0 | 1.0 | 0.00 | 0.00 | 0.00 | 89 | 1002.8 |
| 20260505074256 | 44 | 32 | 0.0 | 1.0 | 0.00 | 0.00 | 0.00 | 92 | 1002.9 |
| 20260505073753 | 44 | 355 | 1.0 | 1.0 | 0.00 | 0.00 | 0.00 | 92 | 1002.9 |
| 20260505073251 | 44 | 356 | 1.0 | 2.0 | 0.00 | 0.00 | 0.00 | 92 | 1002.7 |
| 20260505072747 | 44 | 357 | 1.0 | 2.0 | 0.00 | 0.00 | 0.00 | 91 | 1002.8 |
| 20260505072243 | 47 | 324 | 2.0 | 2.0 | 0.00 | 0.00 | 0.00 | 86 | 1003.0 |
| 20260505071739 | 48 | 11 | 1.0 | 1.0 | 0.00 | 0.00 | 0.00 | 83 | 1002.8 |
| 20260505071236 | 46 | 234 | 2.0 | 2.0 | 0.00 | 0.00 | 0.00 | 86 | 1002.8 |
| 20260505070734 | 46 | 345 | 0.0 | 1.0 | 0.00 | 0.00 | 0.00 | 86 | 1003.0 |
| 20260505070230 | 45 | 29 | 1.0 | 1.0 | 0.00 | 0.00 | 0.00 | 88 | 1002.9 |
| 20260505065726 | 49 | 53 | 1.0 | 1.0 | 0.00 | 0.00 | 0.00 | 82 | 1002.9 |
| 20260505065223 | 48 | 248 | 0.0 | 1.0 | 0.00 | 0.00 | 0.00 | 84 | 1003.0 |
| 20260505064720 | 49 | 15 | 1.0 | 1.0 | 0.00 | 0.00 | 0.00 | 81 | 1003.0 |
| 20260505064218 | 48 | 237 | 2.0 | 3.0 | 0.00 | 0.00 | 0.00 | 82 | 1003.0 |
| 20260505063715 | 47 | 43 | 0.0 | 0.0 | 0.00 | 0.00 | 0.00 | 86 | 1002.7 |
| 20260505063211 | 46 | 17 | 1.0 | 1.0 | 0.00 | 0.00 | 0.00 | 87 | 1002.7 |
| 20260505062707 | 46 | 344 | 2.0 | 2.0 | 0.00 | 0.00 | 0.00 | 88 | 1003.0 |
| 20260505062205 | 44 | 353 | 1.0 | 1.0 | 0.00 | 0.00 | 0.00 | 92 | 1002.6 |
| 20260505061701 | 45 | 317 | 2.0 | 2.0 | 0.00 | 0.00 | 0.00 | 90 | 1002.8 |
| 20260505061200 | 44 | 357 | 1.0 | 1.0 | 0.00 | 0.00 | 0.00 | 91 | 1002.9 |
| 20260505060657 | 44 | 352 | 2.0 | 2.0 | 0.00 | 0.00 | 0.00 | 91 | 1002.6 |
| 20260505060154 | 44 | 8 | 1.0 | 1.0 | 0.00 | 0.00 | 0.00 | 91 | 1002.9 |
| 20260505055649 | 45 | 355 | 1.0 | 1.0 | 0.00 | 0.00 | 0.00 | 90 | 1003.0 |
| 20260505055146 | 46 | 359 | 1.0 | 1.0 | 0.00 | 0.00 | 0.00 | 88 | 1002.9 |
| 20260505054643 | 47 | 30 | 1.0 | 1.0 | 0.00 | 0.00 | 0.00 | 86 | 1002.9 |
| 20260505054141 | 47 | 40 | 1.0 | 1.0 | 0.00 | 0.00 | 0.00 | 85 | 1002.9 |
| 20260505053639 | 48 | 40 | 1.0 | 1.0 | 0.00 | 0.00 | 0.00 | 81 | 1002.8 |
| 20260505053135 | 49 | 64 | 0.0 | 0.0 | 0.00 | 0.00 | 0.00 | 81 | 1002.8 |
| 20260505052632 | 49 | 89 | 0.0 | 0.0 | 0.00 | 0.00 | 0.00 | 80 | 1002.8 |
| 20260505052129 | 50 | 50 | 0.0 | 0.0 | 0.00 | 0.00 | 0.00 | 80 | 1002.7 |
| 20260505051626 | 51 | 43 | 1.0 | 1.0 | 0.00 | 0.00 | 0.00 | 76 | 1002.5 |
| 20260505051124 | 51 | 110 | 0.0 | 1.0 | 0.00 | 0.00 | 0.00 | 77 | 1002.6 |
| 20260505050622 | 51 | 73 | 0.0 | 1.0 | 0.00 | 0.00 | 0.00 | 76 | 1002.7 |
| 20260505050120 | 52 | 57 | 0.0 | 0.0 | 0.00 | 0.00 | 0.00 | 75 | 1002.6 |
| 20260505041549 | 50 | 26 | 1.0 | 1.0 | 0.00 | 0.00 | 0.00 | 82 | 1002.2 |
| 20260505041047 | 49 | 37 | 1.0 | 1.0 | 0.00 | 0.00 | 0.00 | 83 | 1002.4 |
| 20260505040544 | 49 | 28 | 0.0 | 1.0 | 0.00 | 0.00 | 0.00 | 84 | 1002.0 |
| 20260505040041 | 49 | 54 | 1.0 | 1.0 | 0.00 | 0.00 | 0.00 | 83 | 1002.1 |
| 20260505035537 | 49 | 43 | 1.0 | 2.0 | 0.00 | 0.00 | 0.00 | 84 | 1002.0 |
| 20260505035034 | 49 | 278 | 2.0 | 2.0 | 0.00 | 0.00 | 0.00 | 84 | 1002.1 |
| 20260505034530 | 49 | 33 | 1.0 | 2.0 | 0.00 | 0.00 | 0.00 | 84 | 1001.9 |
| 20260505034027 | 49 | 12 | 1.0 | 2.0 | 0.00 | 0.00 | 0.00 | 84 | 1001.9 |
| 20260505033524 | 49 | 36 | 1.0 | 1.0 | 0.00 | 0.00 | 0.00 | 84 | 1001.9 |
| 20260505033023 | 49 | 36 | 1.0 | 1.0 | 0.00 | 0.00 | 0.00 | 84 | 1001.8 |
| 20260505032520 | 49 | 34 | 1.0 | 1.0 | 0.00 | 0.00 | 0.00 | 84 | 1001.7 |
| 20260505032016 | 49 | 20 | 1.0 | 1.0 | 0.00 | 0.00 | 0.00 | 83 | 1001.8 |
| 20260505031514 | 49 | 17 | 1.0 | 2.0 | 0.00 | 0.00 | 0.00 | 83 | 1001.8 |
| 20260505031010 | 49 | 42 | 1.0 | 1.0 | 0.00 | 0.00 | 0.00 | 82 | 1001.8 |
| 20260505030507 | 49 | 66 | 0.0 | 0.0 | 0.00 | 0.00 | 0.00 | 82 | 1001.8 |
| 20260505030002 | 50 | 73 | 0.0 | 1.0 | 0.00 | 0.00 | 0.00 | 82 | 1001.8 |
| 20260505025459 | 50 | 28 | 1.0 | 1.0 | 0.00 | 0.00 | 0.00 | 81 | 1002.2 |
| 20260505024958 | 50 | 22 | 1.0 | 1.0 | 0.00 | 0.00 | 0.00 | 81 | 1001.8 |
| 20260505024454 | 50 | 7 | 1.0 | 1.0 | 0.00 | 0.00 | 0.00 | 80 | 1001.8 |
| 20260505023952 | 51 | 153 | 2.0 | 2.0 | 0.00 | 0.00 | 0.00 | 79 | 1001.6 |
| 20260505023448 | 51 | 33 | 2.0 | 2.0 | 0.00 | 0.00 | 0.00 | 79 | 1001.8 |
| 20260505022946 | 51 | 33 | 1.0 | 1.0 | 0.00 | 0.00 | 0.00 | 78 | 1002.0 |
| 20260505022443 | 51 | 114 | 1.0 | 1.0 | 0.00 | 0.00 | 0.00 | 77 | 1002.0 |
| 20260505021941 | 51 | 258 | 2.0 | 2.0 | 0.00 | 0.00 | 0.00 | 78 | 1002.0 |
| 20260505021437 | 51 | 10 | 1.0 | 1.0 | 0.00 | 0.00 | 0.00 | 78 | 1001.8 |
| 20260505020933 | 52 | 26 | 0.0 | 1.0 | 0.00 | 0.00 | 0.00 | 78 | 1001.7 |
| 20260505020428 | 52 | 26 | 1.0 | 1.0 | 0.00 | 0.00 | 0.00 | 77 | 1001.7 |
| 20260505015925 | 51 | 56 | 1.0 | 1.0 | 0.00 | 0.00 | 0.00 | 80 | 1001.8 |
| 20260505015422 | 51 | 58 | 0.0 | 0.0 | 0.00 | 0.00 | 0.00 | 79 | 1001.5 |
| 20260505014920 | 52 | 58 | 0.0 | 0.0 | 0.00 | 0.00 | 0.00 | 79 | 1001.7 |
| 20260505014416 | 52 | 58 | 0.0 | 0.0 | 0.00 | 0.00 | 0.00 | 80 | 1001.7 |
| 20260505013913 | 52 | 58 | 0.0 | 0.0 | 0.00 | 0.00 | 0.00 | 78 | 1001.7 |
| 20260505013410 | 52 | 58 | 0.0 | 0.0 | 0.00 | 0.00 | 0.00 | 79 | 1001.5 |
| 20260505012908 | 52 | 59 | 0.0 | 0.0 | 0.00 | 0.00 | 0.00 | 79 | 1001.5 |
| 20260505012406 | 52 | 59 | 0.0 | 0.0 | 0.00 | 0.00 | 0.00 | 78 | 1001.3 |
| 20260505011902 | 52 | 58 | 1.0 | 1.0 | 0.00 | 0.00 | 0.00 | 78 | 1001.5 |
| 20260505011359 | 53 | 59 | 0.0 | 0.0 | 0.00 | 0.00 | 0.00 | 77 | 1001.2 |
| 20260505010855 | 53 | 59 | 0.0 | 0.0 | 0.00 | 0.00 | 0.00 | 76 | 1001.1 |
| 20260505010351 | 53 | 58 | 0.0 | 0.0 | 0.00 | 0.00 | 0.00 | 74 | 1001.4 |
| 20260505005847 | 54 | 58 | 0.0 | 0.0 | 0.00 | 0.00 | 0.00 | 73 | 1001.2 |
| 20260505005344 | 55 | 58 | 0.0 | 0.0 | 0.00 | 0.00 | 0.00 | 72 | 1001.2 |
| 20260505004842 | 55 | 58 | 0.0 | 0.0 | 0.00 | 0.00 | 0.00 | 70 | 1001.3 |
| 20260505004338 | 56 | 59 | 0.0 | 1.0 | 0.00 | 0.00 | 0.00 | 69 | 1001.1 |
| 20260505003835 | 56 | 61 | 0.0 | 0.0 | 0.00 | 0.00 | 0.00 | 68 | 1001.1 |
| 20260505003333 | 57 | 59 | 0.0 | 0.0 | 0.00 | 0.00 | 0.00 | 67 | 1000.7 |